STARLINK-5854 (55923 NORAD) Tracking and Keplerian Element Data

This shows tracking and keplerian element data for the satellite.

Feedback or suggestion? Click here.




ElementValue
Catalog55923
NameSTARLINK-5854
Epoch Orbit840
Epoch Day127.25001157
Epoch Year2023
RAAN41.2538
Inclination70.0013
Eccentricity0.000318
Argument of Perigee271.3124
Mean Anonmoly43.7148
Mean Motion15.30092994
Decay Rate-0.00924189
L11 55923U 23037K 23127.25001157 -.00924189 00000+0 -34559-1 0 9996
L22 55923 70.0013 41.2538 0003180 271.3124 43.7148 15.30092994 8403



Live tracking and technical data element details for STARLINK-5854 (NORAD 55923). STARLINK-5854 can be tracked NOW for your location showing map with azimuth and elevation plus other details from your city location.







IsCatalogInMostPopularTable: catalog: 55923, numindb: 10
Update: records affected: 1



GetName: 55923 STARLINK-5854

Hit Count: updated at: Tue, 06 Jun 2023 03:02:59 GMT